This demonstration page uses our WeatherBlox Daily Observations layout. Learn more.

Left ArrowRight Arrow

39.12711, -84.51439

Hourly Observations for August 24, 2018

Temp ( °F °C ) Dew Point ( °F °C ) Humidity (%) Winds ( mph kmh ) Pressure ( in mb ) Visibility ( mi km ) Precip ( " mm )
12:53 am 00:53 Clear 59 15 58 14.4 96 96 N N/A 30.13 1020 10 16 N/A
1:53 am 01:53 Clear 57 13.9 57 13.9 100 100 N N/A 30.13 1020 7 11 N/A
2:53 am 02:53 Clear 57 13.9 57 13.9 100 100 N N/A 30.13 1020 8 13 N/A
3:53 am 03:53 Clear 57 13.9 57 13.9 100 100 N N/A 30.12 1020 9 14 N/A
4:53 am 04:53 Clear 56 13.3 56 13.3 100 100 N N/A 30.12 1020 9 14 N/A
5:53 am 05:53 Mostly Clear 56 13.3 55 12.8 97 97 N N/A 30.11 1020 7 11 N/A
6:53 am 06:53 Clear 56 13.3 56 13.3 100 100 N N/A 30.13 1020 10 16 N/A
7:53 am 07:53 Sunny with Patchy Fog 57 13.9 57 13.9 100 100 N N/A 30.13 1020 10 16 N/A
8:53 am 08:53 Sunny 62 16.7 60 15.6 93 93 N N/A 30.14 1021 10 16 N/A
9:53 am 09:53 Sunny 68 20 62 16.7 81 81 N N/A 30.14 1021 10 16 N/A
10:53 am 10:53 Sunny 73 22.8 60 15.6 64 64 VRB 5 7 30.13 1020 10 16 N/A
11:53 am 11:53 Sunny 76 24.4 61 16.1 60 60 SSE 6 9 30.13 1020 10 16 N/A
12:53 pm 12:53 Sunny 79 26.1 62 16.7 56 56 S 7 11 30.12 1020 10 16 N/A
1:53 pm 13:53 Partly Cloudy 79 26.1 63 17.2 58 58 S 8 13 30.11 1020 10 16 N/A
2:53 pm 14:53 Mostly Cloudy 79 26.1 63 17.2 58 58 S 5 7 30.09 1019 10 16 N/A
3:53 pm 15:53 Partly Cloudy 79 26.1 62 16.7 56 56 SSW 15 24 30.07 1018 10 16 N/A
4:53 pm 16:53 Mostly Sunny 77 25 62 16.7 60 60 SSW 14 22 30.06 1018 10 16 N/A
5:53 pm 17:53 Mostly Sunny 76 24.4 63 17.2 64 64 SSW 12 19 30.06 1018 10 16 N/A
6:53 pm 18:53 Sunny 74 23.3 63 17.2 69 69 S 7 11 30.06 1018 10 16 N/A
7:53 pm 19:53 Sunny 73 22.8 65 18.3 76 76 N N/A 30.07 1018 10 16 N/A
8:53 pm 20:53 Clear 69 20.6 65 18.3 87 87 N N/A 30.07 1018 10 16 N/A
9:53 pm 21:53 Mostly Clear 68 20 65 18.3 90 90 N N/A 30.07 1018 10 16 N/A
10:53 pm 22:53 Clear 67 19.4 65 18.3 93 93 N N/A 30.07 1018 10 16 N/A
11:53 pm 23:53 Mostly Cloudy 67 19.4 66 18.9 97 97 N N/A 30.08 1019 9 14 N/A

Powered by AerisWeather